CFG4EM LEPA-EDDG

Flight info

Callsign CFG4EM
Flight time 2h 3m
Altitude 36000
Route MEROS N853 LUMAS DCT MAXIR DCT LUSOL DCT BODRU DCT OKTET DCT IRMAR DCT KINES DCT VANAS DCT MOBLO DCT UBIMA DCT GILIR DCT PENDU DCT IXILU DCT EPL DCT ROUSY DCT DIK/N0448F370 T856 DEPOK/N0396F230 T856 QATJA N853 HMM HMM1A
Aircraft A320/M-SDE2FGHIJ1RWXY/LB1

Departure

Time 2026-05-07 16:46
Airport Palma de Mallorca Airport (LEPA)

Arrival

Time 2026-05-07 18:50
Airport Münster Osnabrück Airport (EDDG)
Time Latitude Longitude Altitude Speed Heading
2026-05-07 16:22 39.54945 2.73767 38 ft 0 kts 239°
2026-05-07 16:22 39.55002 2.73725 39 ft 0 kts 239°
2026-05-07 16:37 39.55006 2.73734 37 ft 4 kts 239°
2026-05-07 16:37 39.55019 2.73765 38 ft 4 kts 239°
2026-05-07 16:38 39.55032 2.73793 37 ft 2 kts 240°
2026-05-07 16:38 39.55046 2.73816 38 ft 4 kts 208°
2026-05-07 16:38 39.55070 2.73823 37 ft 4 kts 165°
2026-05-07 16:38 39.55092 2.73809 35 ft 4 kts 149°
2026-05-07 16:39 39.55102 2.73801 34 ft 0 kts 149°
2026-05-07 16:41 39.55093 2.73808 35 ft 4 kts 149°
2026-05-07 16:41 39.55038 2.73852 37 ft 14 kts 148°
2026-05-07 16:41 39.54940 2.73929 38 ft 17 kts 149°
2026-05-07 16:41 39.54842 2.73997 38 ft 13 kts 172°
2026-05-07 16:42 39.54777 2.73943 38 ft 10 kts 196°
2026-05-07 16:42 39.54716 2.73955 38 ft 8 kts 195°
2026-05-07 16:42 39.54674 2.73885 38 ft 13 kts 238°
2026-05-07 16:42 39.54623 2.73778 38 ft 13 kts 238°
2026-05-07 16:43 39.54577 2.73680 38 ft 14 kts 239°
2026-05-07 16:43 39.54521 2.73559 38 ft 16 kts 239°
2026-05-07 16:43 39.54463 2.73437 38 ft 18 kts 238°
2026-05-07 16:43 39.54389 2.73282 38 ft 21 kts 240°
2026-05-07 16:44 39.54313 2.73122 38 ft 19 kts 237°
2026-05-07 16:44 39.54241 2.73047 38 ft 12 kts 161°
2026-05-07 16:44 39.54212 2.73138 38 ft 11 kts 91°
2026-05-07 16:44 39.54213 2.73246 38 ft 13 kts 96°
2026-05-07 16:45 39.54197 2.73319 38 ft 4 kts 58°
2026-05-07 16:45 39.54198 2.73322 38 ft 0 kts 58°
2026-05-07 16:45 39.54201 2.73327 38 ft 11 kts 58°
2026-05-07 16:45 39.54385 2.73716 38 ft 86 kts 58°
2026-05-07 16:46 39.54803 2.74599 39 ft 143 kts 59°
2026-05-07 16:46 39.55379 2.75828 334 ft 164 kts 59°
2026-05-07 16:46 39.55961 2.77097 1062 ft 163 kts 59°
2026-05-07 16:46 39.56536 2.78357 1815 ft 162 kts 60°
2026-05-07 16:47 39.57131 2.79666 2235 ft 178 kts 61°
2026-05-07 16:47 39.57800 2.81139 2509 ft 200 kts 60°
2026-05-07 16:47 39.58510 2.82702 3014 ft 207 kts 61°
2026-05-07 16:47 39.59254 2.84339 3693 ft 210 kts 61°
2026-05-07 16:48 39.59992 2.85961 4339 ft 214 kts 61°
2026-05-07 16:48 39.60755 2.87631 5017 ft 216 kts 61°
2026-05-07 16:48 39.61524 2.89313 5687 ft 218 kts 61°
2026-05-07 16:48 39.62299 2.91013 6307 ft 222 kts 61°
2026-05-07 16:49 39.63100 2.92825 6641 ft 240 kts 62°
2026-05-07 16:49 39.63933 2.94744 7235 ft 246 kts 62°
2026-05-07 16:49 39.64776 2.96699 7923 ft 249 kts 62°
2026-05-07 16:49 39.65628 2.98679 8573 ft 255 kts 63°
2026-05-07 16:50 39.66524 3.00764 9017 ft 273 kts 63°
2026-05-07 16:50 39.67460 3.02936 9728 ft 280 kts 62°
2026-05-07 16:50 39.68428 3.05175 10287 ft 293 kts 63°
2026-05-07 16:50 39.69462 3.07570 10509 ft 316 kts 63°
2026-05-07 16:51 39.70574 3.10150 10751 ft 335 kts 63°
2026-05-07 16:51 39.71729 3.12824 11303 ft 343 kts 63°
2026-05-07 16:51 39.72907 3.15544 11970 ft 347 kts 63°
2026-05-07 16:51 39.74080 3.18259 12615 ft 352 kts 63°
2026-05-07 16:52 39.75282 3.21046 13271 ft 355 kts 63°
2026-05-07 16:52 39.76498 3.23871 13881 ft 360 kts 63°
2026-05-07 16:52 39.77824 3.26642 14459 ft 365 kts 54°
2026-05-07 16:52 39.79480 3.29177 15020 ft 370 kts 51°
2026-05-07 16:53 39.81177 3.31706 15570 ft 374 kts 51°
2026-05-07 16:53 39.82893 3.34273 16132 ft 378 kts 51°
2026-05-07 16:53 39.84624 3.36871 16672 ft 382 kts 51°
2026-05-07 16:53 39.86368 3.39497 17218 ft 386 kts 51°
2026-05-07 16:54 39.88135 3.42161 17746 ft 390 kts 51°
2026-05-07 16:54 39.89918 3.44850 18279 ft 394 kts 51°
2026-05-07 16:54 39.91719 3.47561 18740 ft 398 kts 51°
2026-05-07 16:54 39.93543 3.50303 19202 ft 402 kts 51°
2026-05-07 16:55 39.95386 3.53070 19667 ft 406 kts 51°
2026-05-07 16:55 39.97248 3.55869 20130 ft 410 kts 51°
2026-05-07 16:55 39.99126 3.58703 20572 ft 415 kts 51°
2026-05-07 16:55 40.01021 3.61572 21004 ft 420 kts 51°
2026-05-07 16:56 40.02928 3.64474 21457 ft 424 kts 51°
2026-05-07 16:56 40.04854 3.67409 21898 ft 427 kts 51°
2026-05-07 16:56 40.08736 3.73316 22777 ft 434 kts 51°
2026-05-07 16:57 40.10712 3.76319 23188 ft 438 kts 51°
2026-05-07 16:57 40.12703 3.79344 23583 ft 441 kts 51°
2026-05-07 16:57 40.14707 3.82396 23904 ft 444 kts 51°
2026-05-07 16:57 40.16722 3.85472 24235 ft 447 kts 51°
2026-05-07 16:58 40.18760 3.88574 24567 ft 450 kts 51°
2026-05-07 16:58 40.20806 3.91696 24858 ft 454 kts 51°
2026-05-07 16:58 40.22869 3.94846 25149 ft 457 kts 51°
2026-05-07 16:58 40.24945 3.98023 25444 ft 461 kts 51°
2026-05-07 16:59 40.27034 4.01227 25728 ft 464 kts 51°
2026-05-07 16:59 40.29137 4.04462 26013 ft 467 kts 51°
2026-05-07 16:59 40.31249 4.07709 26295 ft 470 kts 51°
2026-05-07 16:59 40.33351 4.10940 26576 ft 473 kts 51°
2026-05-07 17:00 40.35498 4.14244 26847 ft 476 kts 51°
2026-05-07 17:00 40.37651 4.17558 27116 ft 480 kts 51°
2026-05-07 17:00 40.39822 4.20901 27354 ft 482 kts 51°
2026-05-07 17:00 40.42002 4.24259 27644 ft 485 kts 51°
2026-05-07 17:01 40.44193 4.27648 27892 ft 488 kts 51°
2026-05-07 17:01 40.46503 4.30946 28145 ft 492 kts 44°
2026-05-07 17:01 40.49166 4.33789 28394 ft 495 kts 34°
2026-05-07 17:01 40.52143 4.36064 28618 ft 497 kts 24°
2026-05-07 17:02 40.55360 4.37719 28858 ft 497 kts 14°
2026-05-07 17:02 40.58734 4.38741 29081 ft 497 kts
2026-05-07 17:02 40.62146 4.39551 29304 ft 500 kts
2026-05-07 17:02 40.65575 4.40369 29536 ft 502 kts
2026-05-07 17:03 40.69017 4.41194 29739 ft 504 kts
2026-05-07 17:03 40.72478 4.42026 29949 ft 506 kts
2026-05-07 17:03 40.75948 4.42861 30127 ft 508 kts
2026-05-07 17:03 40.79425 4.43698 30360 ft 508 kts
2026-05-07 17:04 40.82901 4.44535 30628 ft 508 kts
2026-05-07 17:04 40.86383 4.45374 30863 ft 508 kts
2026-05-07 17:04 40.89865 4.46215 31099 ft 509 kts
2026-05-07 17:04 40.93340 4.47055 31342 ft 509 kts
2026-05-07 17:05 40.96822 4.47898 31587 ft 509 kts
2026-05-07 17:05 41.00303 4.48743 31834 ft 509 kts
2026-05-07 17:05 41.03786 4.49591 32082 ft 509 kts
2026-05-07 17:05 41.07268 4.50437 32339 ft 509 kts
2026-05-07 17:06 41.10746 4.51283 32581 ft 509 kts
2026-05-07 17:06 41.14228 4.52131 32821 ft 509 kts
2026-05-07 17:06 41.17667 4.52971 33057 ft 509 kts
2026-05-07 17:06 41.21191 4.53833 33303 ft 509 kts
2026-05-07 17:07 41.24628 4.54674 33538 ft 509 kts
2026-05-07 17:07 41.28111 4.55525 33796 ft 508 kts
2026-05-07 17:07 41.31585 4.56372 34055 ft 508 kts
2026-05-07 17:07 41.35061 4.57225 34279 ft 507 kts
2026-05-07 17:08 41.38530 4.58083 34487 ft 506 kts
2026-05-07 17:08 41.41986 4.58938 34717 ft 505 kts
2026-05-07 17:08 41.45444 4.59791 34944 ft 504 kts
2026-05-07 17:08 41.48894 4.60638 35165 ft 503 kts
2026-05-07 17:09 41.52338 4.61484 35373 ft 503 kts
2026-05-07 17:09 41.55779 4.62332 35564 ft 502 kts
2026-05-07 17:09 41.59214 4.63180 35757 ft 501 kts
2026-05-07 17:09 41.62645 4.64029 35923 ft 501 kts
2026-05-07 17:10 41.69501 4.65730 35978 ft 501 kts
2026-05-07 17:10 41.76074 4.68914 35967 ft 507 kts 27°
2026-05-07 17:11 41.82111 4.73712 35964 ft 508 kts 30°
2026-05-07 17:11 41.88208 4.78619 35964 ft 508 kts 30°
2026-05-07 17:12 41.93246 4.82678 35970 ft 508 kts 29°
2026-05-07 17:12 41.99297 4.87573 35966 ft 508 kts 30°
2026-05-07 17:13 42.05351 4.92476 35966 ft 507 kts 29°
2026-05-07 17:13 42.11403 4.97372 35960 ft 507 kts 29°
2026-05-07 17:14 42.17446 5.02285 35958 ft 507 kts 29°
2026-05-07 17:14 42.23451 5.07184 35960 ft 507 kts 29°
2026-05-07 17:15 42.29532 5.12152 35968 ft 507 kts 29°
2026-05-07 17:15 42.35526 5.17053 35971 ft 507 kts 29°
2026-05-07 17:16 42.41549 5.22000 35973 ft 506 kts 29°
2026-05-07 17:16 42.47561 5.26958 35972 ft 506 kts 29°
2026-05-07 17:17 42.53571 5.31912 35987 ft 505 kts 28°
2026-05-07 17:17 42.59582 5.36867 35965 ft 505 kts 28°
2026-05-07 17:18 42.65571 5.41831 35966 ft 505 kts 29°
2026-05-07 17:18 42.71561 5.46810 35966 ft 505 kts 29°
2026-05-07 17:19 42.77548 5.51799 35965 ft 505 kts 29°
2026-05-07 17:19 42.83538 5.56794 35965 ft 505 kts 29°
2026-05-07 17:20 42.89523 5.61793 35981 ft 505 kts 28°
2026-05-07 17:20 42.95508 5.66802 35981 ft 504 kts 28°
2026-05-07 17:21 43.01486 5.71814 35966 ft 504 kts 28°
2026-05-07 17:21 43.07408 5.76799 35969 ft 503 kts 28°
2026-05-07 17:22 43.13365 5.81828 35985 ft 503 kts 28°
2026-05-07 17:22 43.19323 5.86870 35985 ft 503 kts 28°
2026-05-07 17:23 43.25271 5.91912 35979 ft 502 kts 28°
2026-05-07 17:23 43.31218 5.96949 35986 ft 502 kts 28°
2026-05-07 17:24 43.37231 6.01744 35968 ft 497 kts 19°
2026-05-07 17:24 43.43753 6.04397 35955 ft 482 kts
2026-05-07 17:25 43.50385 6.05135 35961 ft 478 kts 357°
2026-05-07 17:25 43.57020 6.05800 35959 ft 478 kts 358°
2026-05-07 17:26 43.63648 6.06485 35955 ft 477 kts 358°
2026-05-07 17:26 43.70272 6.07164 35966 ft 477 kts 358°
2026-05-07 17:27 43.76874 6.08355 35957 ft 485 kts
2026-05-07 17:27 43.83182 6.11928 35948 ft 494 kts 21°
2026-05-07 17:28 43.89347 6.16148 35964 ft 494 kts 21°
2026-05-07 17:28 43.95504 6.20358 35965 ft 493 kts 21°
2026-05-07 17:29 44.01654 6.24567 35975 ft 492 kts 21°
2026-05-07 17:29 44.07752 6.28753 35992 ft 491 kts 22°
2026-05-07 17:30 44.13874 6.32963 35978 ft 490 kts 22°
2026-05-07 17:30 44.19982 6.37177 35972 ft 489 kts 22°
2026-05-07 17:31 44.26079 6.41387 35987 ft 489 kts 22°
2026-05-07 17:31 44.32167 6.45591 35989 ft 488 kts 22°
2026-05-07 17:32 44.38242 6.49800 35966 ft 487 kts 21°
2026-05-07 17:32 44.44308 6.54018 35980 ft 487 kts 22°
2026-05-07 17:33 44.50358 6.58241 35986 ft 485 kts 22°
2026-05-07 17:33 44.56397 6.62445 35985 ft 484 kts 22°
2026-05-07 17:34 44.62424 6.66672 35982 ft 484 kts 22°
2026-05-07 17:34 44.68443 6.70911 35980 ft 483 kts 22°
2026-05-07 17:35 44.74419 6.75110 35975 ft 483 kts 22°
2026-05-07 17:35 44.80687 6.78127 35991 ft 472 kts
2026-05-07 17:36 44.87154 6.78556 35983 ft 461 kts 352°
2026-05-07 17:36 44.93575 6.78135 35971 ft 462 kts 352°
2026-05-07 17:37 44.99998 6.77728 35989 ft 462 kts 352°
2026-05-07 17:37 45.06429 6.77308 35995 ft 463 kts 352°
2026-05-07 17:38 45.12861 6.76880 36001 ft 463 kts 352°
2026-05-07 17:38 45.19293 6.76452 36015 ft 462 kts 352°
2026-05-07 17:39 45.25718 6.76026 36010 ft 462 kts 352°
2026-05-07 17:39 45.32146 6.75605 36010 ft 462 kts 352°
2026-05-07 17:40 45.38563 6.75177 36017 ft 462 kts 352°
2026-05-07 17:40 45.44975 6.74736 36011 ft 461 kts 352°
2026-05-07 17:41 45.51382 6.74302 36004 ft 460 kts 352°
2026-05-07 17:41 45.57778 6.73867 36013 ft 460 kts 352°
2026-05-07 17:42 45.64170 6.73427 36010 ft 460 kts 352°
2026-05-07 17:42 45.70513 6.72987 35994 ft 458 kts 352°
2026-05-07 17:43 45.76897 6.72548 36002 ft 459 kts 352°
2026-05-07 17:43 45.83273 6.72107 36016 ft 459 kts 352°
2026-05-07 17:44 45.89645 6.71679 36013 ft 457 kts 352°
2026-05-07 17:44 45.96006 6.71254 36000 ft 457 kts 352°
2026-05-07 17:45 46.02370 6.70815 36015 ft 457 kts 352°
2026-05-07 17:45 46.08723 6.70375 36020 ft 456 kts 352°
2026-05-07 17:46 46.14885 6.69008 36013 ft 447 kts 338°
2026-05-07 17:46 46.20765 6.66166 36017 ft 445 kts 336°
2026-05-07 17:47 46.26631 6.63318 36014 ft 445 kts 336°
2026-05-07 17:47 46.32509 6.60454 36000 ft 445 kts 336°
2026-05-07 17:48 46.38390 6.57583 36031 ft 445 kts 336°
2026-05-07 17:48 46.44264 6.54710 36024 ft 445 kts 336°
2026-05-07 17:49 46.50127 6.51838 36025 ft 445 kts 336°
2026-05-07 17:49 46.55989 6.48946 36036 ft 444 kts 336°
2026-05-07 17:50 46.61815 6.46081 36045 ft 444 kts 336°
2026-05-07 17:50 46.67669 6.43194 36044 ft 444 kts 336°
2026-05-07 17:51 46.73525 6.40294 36037 ft 445 kts 336°
2026-05-07 17:51 46.79381 6.37388 36054 ft 445 kts 336°
2026-05-07 17:52 46.85243 6.34474 36066 ft 444 kts 336°
2026-05-07 17:52 46.91095 6.31556 36066 ft 444 kts 336°
2026-05-07 17:53 46.96940 6.28631 36062 ft 444 kts 336°
2026-05-07 17:53 47.02779 6.25706 36068 ft 443 kts 336°
2026-05-07 17:54 47.08489 6.22394 36060 ft 439 kts 329°
2026-05-07 17:54 47.13971 6.18436 36060 ft 439 kts 329°
2026-05-07 17:55 47.19418 6.14494 36057 ft 439 kts 329°
2026-05-07 17:55 47.24905 6.10521 36064 ft 439 kts 329°
2026-05-07 17:56 47.30389 6.06538 36055 ft 439 kts 329°
2026-05-07 17:56 47.36236 6.03703 36049 ft 449 kts 348°
2026-05-07 17:57 47.41454 6.03418 36048 ft 454 kts 357°
2026-05-07 17:57 47.48842 6.03589 36053 ft 454 kts 357°
2026-05-07 17:58 47.54100 6.03699 36046 ft 455 kts 357°
2026-05-07 17:58 47.60421 6.03831 36041 ft 455 kts 357°
2026-05-07 17:59 47.66760 6.03966 36064 ft 455 kts 357°
2026-05-07 17:59 47.73087 6.04107 36048 ft 455 kts 357°
2026-05-07 18:00 47.79428 6.04289 36056 ft 455 kts 358°
2026-05-07 18:00 47.85743 6.04499 36065 ft 455 kts 358°
2026-05-07 18:01 47.92025 6.04700 36065 ft 455 kts 358°
2026-05-07 18:01 47.98350 6.04902 36064 ft 455 kts 358°
2026-05-07 18:02 48.07840 6.05197 36075 ft 454 kts 358°
2026-05-07 18:03 48.14157 6.05391 36071 ft 454 kts 358°
2026-05-07 18:03 48.20479 6.05588 36069 ft 454 kts 358°
2026-05-07 18:04 48.26806 6.05780 36065 ft 454 kts 358°
2026-05-07 18:04 48.33080 6.05984 36075 ft 454 kts 358°
2026-05-07 18:05 48.39397 6.06267 36071 ft 454 kts 359°
2026-05-07 18:05 48.45706 6.06583 36067 ft 454 kts 359°
2026-05-07 18:06 48.52023 6.06888 36074 ft 453 kts 359°
2026-05-07 18:06 48.58327 6.07184 36074 ft 453 kts 359°
2026-05-07 18:07 48.64630 6.07495 36066 ft 453 kts 359°
2026-05-07 18:07 48.70938 6.07796 36063 ft 453 kts 359°
2026-05-07 18:08 48.77244 6.08098 36062 ft 453 kts 359°
2026-05-07 18:08 48.83551 6.08402 36058 ft 453 kts 359°
2026-05-07 18:09 48.89842 6.09133 36053 ft 456 kts
2026-05-07 18:09 48.96045 6.10826 36066 ft 456 kts
2026-05-07 18:10 49.02308 6.12539 36064 ft 456 kts
2026-05-07 18:10 49.08557 6.14260 36063 ft 456 kts
2026-05-07 18:11 49.14809 6.15986 36069 ft 456 kts
2026-05-07 18:11 49.21063 6.17713 36066 ft 456 kts
2026-05-07 18:12 49.27302 6.19439 36065 ft 456 kts
2026-05-07 18:12 49.33513 6.21176 36064 ft 456 kts
2026-05-07 18:13 49.39755 6.22917 36073 ft 456 kts
2026-05-07 18:13 49.46005 6.24659 36069 ft 456 kts
2026-05-07 18:14 49.52243 6.26391 36065 ft 456 kts
2026-05-07 18:14 49.58487 6.28107 36075 ft 455 kts
2026-05-07 18:15 49.64729 6.29817 36068 ft 455 kts
2026-05-07 18:15 49.70937 6.31537 36065 ft 455 kts
2026-05-07 18:16 49.77174 6.33268 36065 ft 455 kts
2026-05-07 18:16 49.83410 6.35025 36066 ft 455 kts
2026-05-07 18:17 49.89646 6.36771 36066 ft 455 kts
2026-05-07 18:17 49.95866 6.38568 36061 ft 456 kts 13°
2026-05-07 18:18 50.01815 6.42096 36073 ft 458 kts 20°
2026-05-07 18:18 50.07707 6.45853 36061 ft 458 kts 20°
2026-05-07 18:19 50.13613 6.49651 36064 ft 458 kts 20°
2026-05-07 18:19 50.19511 6.53445 36060 ft 459 kts 20°
2026-05-07 18:20 50.25414 6.57233 35918 ft 460 kts 20°
2026-05-07 18:20 50.28372 6.59132 35454 ft 459 kts 20°
2026-05-07 18:20 50.31325 6.61028 34896 ft 457 kts 20°
2026-05-07 18:20 50.34261 6.62916 34349 ft 456 kts 20°
2026-05-07 18:21 50.37177 6.64776 33723 ft 454 kts 20°
2026-05-07 18:21 50.40106 6.66633 33033 ft 454 kts 20°
2026-05-07 18:21 50.43036 6.68487 32367 ft 455 kts 20°
2026-05-07 18:21 50.45962 6.70342 31718 ft 453 kts 20°
2026-05-07 18:22 50.48877 6.72197 31079 ft 450 kts 20°
2026-05-07 18:22 50.50788 6.73417 30661 ft 447 kts 20°
2026-05-07 18:22 50.54591 6.75849 29792 ft 443 kts 20°
2026-05-07 18:22 50.57433 6.77671 29081 ft 440 kts 20°
2026-05-07 18:23 50.60257 6.79485 28383 ft 437 kts 20°
2026-05-07 18:23 50.63076 6.81266 27702 ft 435 kts 20°
2026-05-07 18:23 50.65889 6.83002 27036 ft 432 kts 19°
2026-05-07 18:23 50.68697 6.84648 26438 ft 427 kts 15°
2026-05-07 18:24 50.71569 6.85661 25908 ft 420 kts
2026-05-07 18:24 50.74452 6.85947 25386 ft 414 kts 357°
2026-05-07 18:24 50.77310 6.85746 24872 ft 409 kts 355°
2026-05-07 18:24 50.80137 6.85533 24394 ft 404 kts 355°
2026-05-07 18:25 50.82929 6.85321 24151 ft 400 kts 355°
2026-05-07 18:25 50.85704 6.85109 23916 ft 398 kts 355°
2026-05-07 18:25 50.88467 6.84897 23681 ft 397 kts 355°
2026-05-07 18:25 50.91168 6.84680 23418 ft 395 kts 354°
2026-05-07 18:26 50.93891 6.84335 23147 ft 393 kts 353°
2026-05-07 18:26 50.96604 6.83937 23028 ft 392 kts 355°
2026-05-07 18:26 50.99341 6.83958 23061 ft 394 kts
2026-05-07 18:26 51.02076 6.84112 23059 ft 394 kts
2026-05-07 18:27 51.04816 6.84334 23054 ft 394 kts
2026-05-07 18:27 51.07501 6.85214 23066 ft 396 kts 17°
2026-05-07 18:27 51.10018 6.86964 22630 ft 394 kts 29°
2026-05-07 18:27 51.12228 6.89504 22109 ft 393 kts 41°
2026-05-07 18:28 51.14067 6.92718 21615 ft 391 kts 52°
2026-05-07 18:28 51.15689 6.96184 21109 ft 389 kts 52°
2026-05-07 18:28 51.17303 6.99625 20632 ft 387 kts 52°
2026-05-07 18:28 51.18908 7.03043 20166 ft 384 kts 52°
2026-05-07 18:29 51.20503 7.06441 19899 ft 383 kts 52°
2026-05-07 18:29 51.22100 7.09843 19655 ft 382 kts 52°
2026-05-07 18:29 51.23696 7.13240 19405 ft 381 kts 52°
2026-05-07 18:29 51.25263 7.16583 19170 ft 380 kts 52°
2026-05-07 18:30 51.26842 7.19962 19053 ft 379 kts 52°
2026-05-07 18:30 51.28482 7.23251 19073 ft 379 kts 44°
2026-05-07 18:30 51.30561 7.25738 19081 ft 376 kts 26°
2026-05-07 18:30 51.32928 7.27516 19086 ft 376 kts 23°
2026-05-07 18:31 51.35310 7.29258 19090 ft 376 kts 23°
2026-05-07 18:31 51.37683 7.30991 19084 ft 376 kts 23°
2026-05-07 18:31 51.40062 7.32730 19088 ft 376 kts 23°
2026-05-07 18:31 51.42418 7.34542 19088 ft 376 kts 25°
2026-05-07 18:32 51.44753 7.36441 19087 ft 376 kts 26°
2026-05-07 18:32 51.47069 7.38384 19085 ft 376 kts 26°
2026-05-07 18:32 51.49375 7.40340 18918 ft 373 kts 26°
2026-05-07 18:32 51.51664 7.42274 18467 ft 370 kts 26°
2026-05-07 18:33 51.53939 7.44183 17996 ft 368 kts 26°
2026-05-07 18:33 51.56200 7.46068 17521 ft 365 kts 26°
2026-05-07 18:33 51.58454 7.47936 17063 ft 363 kts 26°
2026-05-07 18:33 51.60691 7.49787 16604 ft 360 kts 26°
2026-05-07 18:34 51.62911 7.51626 16148 ft 358 kts 26°
2026-05-07 18:34 51.65121 7.53458 15713 ft 356 kts 26°
2026-05-07 18:34 51.67311 7.55278 15293 ft 353 kts 26°
2026-05-07 18:34 51.69487 7.57089 14878 ft 351 kts 26°
2026-05-07 18:35 51.71622 7.58868 14465 ft 349 kts 26°
2026-05-07 18:35 51.73769 7.60671 14063 ft 347 kts 26°
2026-05-07 18:35 51.75899 7.62475 13627 ft 345 kts 26°
2026-05-07 18:35 51.78008 7.64266 13174 ft 342 kts 25°
2026-05-07 18:36 51.80238 7.65496 12749 ft 337 kts
2026-05-07 18:36 51.82544 7.65497 12305 ft 331 kts 348°
2026-05-07 18:36 51.84708 7.64325 11853 ft 326 kts 330°
2026-05-07 18:36 51.86510 7.62156 11391 ft 322 kts 313°
2026-05-07 18:37 51.87791 7.59226 10923 ft 319 kts 295°
2026-05-07 18:37 51.88532 7.55853 10470 ft 318 kts 287°
2026-05-07 18:37 51.89177 7.52429 10015 ft 317 kts 286°
2026-05-07 18:37 51.89811 7.49043 9689 ft 311 kts 287°
2026-05-07 18:38 51.90433 7.45722 9377 ft 304 kts 287°
2026-05-07 18:38 51.91033 7.42496 9104 ft 296 kts 287°
2026-05-07 18:38 51.91619 7.39336 8839 ft 289 kts 287°
2026-05-07 18:38 51.92185 7.36291 8580 ft 282 kts 288°
2026-05-07 18:39 51.92742 7.33289 8317 ft 275 kts 288°
2026-05-07 18:39 51.93287 7.30357 8061 ft 268 kts 288°
2026-05-07 18:39 51.93825 7.27498 7805 ft 263 kts 288°
2026-05-07 18:39 51.94375 7.24672 7457 ft 262 kts 289°
2026-05-07 18:40 51.94917 7.21857 7074 ft 261 kts 288°
2026-05-07 18:40 51.95459 7.19045 6702 ft 260 kts 289°
2026-05-07 18:40 51.95985 7.16269 6459 ft 253 kts 288°
2026-05-07 18:40 51.96483 7.13604 6324 ft 241 kts 288°
2026-05-07 18:41 51.97008 7.11093 6182 ft 228 kts 300°
2026-05-07 18:41 51.98054 7.09299 5947 ft 218 kts 333°
2026-05-07 18:41 51.99502 7.08796 5620 ft 215 kts
2026-05-07 18:41 52.00848 7.09758 5331 ft 216 kts 45°
2026-05-07 18:42 52.01493 7.11925 5083 ft 219 kts 77°
2026-05-07 18:42 52.01858 7.14335 4825 ft 219 kts 70°
2026-05-07 18:42 52.02357 7.16672 4566 ft 218 kts 69°
2026-05-07 18:42 52.02865 7.18987 4302 ft 217 kts 70°
2026-05-07 18:43 52.03365 7.21290 4066 ft 215 kts 70°
2026-05-07 18:43 52.03856 7.23556 3988 ft 214 kts 70°
2026-05-07 18:43 52.04351 7.25844 3994 ft 214 kts 70°
2026-05-07 18:43 52.04844 7.28129 4004 ft 215 kts 70°
2026-05-07 18:44 52.05338 7.30423 4003 ft 216 kts 70°
2026-05-07 18:44 52.05833 7.32721 4007 ft 215 kts 70°
2026-05-07 18:44 52.06323 7.34995 4002 ft 208 kts 70°
2026-05-07 18:44 52.06783 7.37141 3953 ft 196 kts 70°
2026-05-07 18:45 52.07220 7.39173 3790 ft 187 kts 70°
2026-05-07 18:45 52.07644 7.41149 3534 ft 182 kts 70°
2026-05-07 18:45 52.08056 7.43073 3296 ft 179 kts 70°
2026-05-07 18:45 52.08464 7.44979 3049 ft 178 kts 70°
2026-05-07 18:46 52.08731 7.46223 2884 ft 179 kts 71°
2026-05-07 18:46 52.09137 7.48123 2655 ft 177 kts 71°
2026-05-07 18:46 52.09534 7.49983 2419 ft 170 kts 71°
2026-05-07 18:46 52.09906 7.51726 2200 ft 153 kts 71°
2026-05-07 18:47 52.10238 7.53281 1988 ft 140 kts 72°
2026-05-07 18:47 52.10558 7.54761 1763 ft 137 kts 71°
2026-05-07 18:47 52.10876 7.56219 1511 ft 137 kts 73°
2026-05-07 18:47 52.11165 7.57688 1329 ft 135 kts 73°
2026-05-07 18:48 52.11466 7.59122 1149 ft 134 kts 72°
2026-05-07 18:48 52.11770 7.60555 972 ft 134 kts 71°
2026-05-07 18:48 52.12085 7.61996 789 ft 136 kts 71°
2026-05-07 18:48 52.12394 7.63465 628 ft 139 kts 72°
2026-05-07 18:49 52.12717 7.64958 469 ft 141 kts 71°
2026-05-07 18:49 52.13036 7.66464 282 ft 139 kts 72°
2026-05-07 18:49 52.13341 7.67888 168 ft 123 kts 74°
2026-05-07 18:49 52.13547 7.68879 167 ft 64 kts 71°
2026-05-07 18:50 52.13661 7.69424 169 ft 38 kts 72°
2026-05-07 18:50 52.13737 7.69780 168 ft 25 kts 71°
2026-05-07 18:50 52.13754 7.69995 167 ft 17 kts 126°
2026-05-07 18:50 52.13660 7.70039 167 ft 7 kts 187°
2026-05-07 18:51 52.13616 7.69993 167 ft 8 kts 227°
2026-05-07 18:51 52.13582 7.69868 167 ft 19 kts 250°
2026-05-07 18:51 52.13535 7.69646 168 ft 23 kts 252°
2026-05-07 18:51 52.13486 7.69409 168 ft 19 kts 250°
2026-05-07 18:52 52.13439 7.69250 167 ft 11 kts 217°
2026-05-07 18:52 52.13367 7.69258 167 ft 11 kts 161°
2026-05-07 18:52 52.13295 7.69299 167 ft 11 kts 161°
2026-05-07 18:52 52.13223 7.69289 167 ft 11 kts 230°
2026-05-07 18:53 52.13166 7.69226 167 ft 8 kts 196°
2026-05-07 18:53 52.13133 7.69210 167 ft 1 kts 197°
2026-05-07 18:53 52.13132 7.69210 167 ft 0 kts 197°